Regional Weather Roundup
Issued by NWS Wakefield, VA

Home | Current Version | Previous Version | Graphics & Text | Print | Product List | Glossary On
Versions: 1 2 3 4 5 6 7 8 9 10 11 12 13 14 15 16 17 18 19 20 21 22 23 24 25 26 27 28 29 30 31 32 33 34 35 36 37 38 39 40 41 42 43 44 45 46 47 48 49 50
000
ASUS41 KAKQ 310710
RWRAKQ

REGIONAL WEATHER ROUNDUP
NATIONAL WEATHER SERVICE WAKEFIELD VA
300 AM EDT THU JUL 31 2014

Note: "fair" indicates few or no clouds below 12,000 feet with no
significant weather and/or obstructions to visibility. * = Denotes
station may not report precipitation (e.g., rain,snow,etc.),
thunder or fog.

VAZ042-051-052>054-056-310800-
NORTHERN VIRGINIA

CITY           SKY/WX    TMP DP  RH WIND       PRES   REMARKS
WASH NATIONAL  PTCLDY    68  58  70 SW3       30.07F
DULLES         PTCLDY    59  57  93 CALM      30.07F
FORT BELVOIR   CLEAR     59  58  96 CALM      30.07F
QUANTICO       CLEAR     63  60  90 NW5       30.08F
FREDERICKSBRG* CLEAR     60  60  98 CALM      30.07S
STAFFORD*      CLEAR     55  55 100 CALM      30.11F FOG
WARRENTON      CLEAR     57  57 100 CALM      30.07S FOG
CULPEPER*      CLEAR    N/A N/A N/A CALM      30.08S HAZE
MANASSAS*      NOT AVBL
LEESBURG*      PTCLDY    63  61  94 CALM      30.07F
WINCHESTER     CLEAR     59  57  94 CALM      30.07F
$$

VAZ048-049-060>072-079>083-310800-
CENTRAL AND SOUTH CENTRAL VIRGINIA...AND NORTH CENTRAL NORTH CAROLINA

CITY           SKY/WX    TMP DP  RH WIND       PRES   REMARKS
RICHMOND       CLEAR     67  61  81 CALM      30.09S
CHESTERFIELD*  SUNNY    N/A N/A N/A CALM      30.10F
HANOVER        CLEAR     59  57  93 CALM      30.10S
TAPPAHANNOCK*  CLEAR     63  59  85 S3        30.09F
CHARLOTTSVILLE CLEAR     60  58  92 W5        30.09S
ORANGE*        CLEAR     59  55  88 CALM      30.09S
LOUISA*        CLEAR     59  57  94 CALM      30.07F
FARMVILLE*     MOCLDY    59  57  94 CALM      30.08S FOG
SOUTH HILL*    CLEAR     63  63 100 CALM      30.15S
ROANOKE RAPIDS NOT AVBL
RALEIGH        MOCLDY    70  63  78 CALM      30.09S
$$

VAZ088>098-310800-
SOUTHEAST VIRGINIA

CITY           SKY/WX    TMP DP  RH WIND       PRES   REMARKS
NORFOLK        CLEAR     67  61  81 CALM      30.09S
VIRGINIA BEACH CLEAR     64  61  90 CALM      30.09R
NORFOLK NAVAL  PTCLDY    70  61  73 CALM      30.11R
WEST POINT*    CLEAR     68  62  80 SE3       30.11S
NEWPORT NEWS   CLEAR     66  60  81 CALM      30.10R
LANGLEY AFB    CLEAR     67  65  93 CALM      30.09S
FORT EUSTIS    PTCLDY    71  63  77 S5        30.08S
WILLIAMSBURG*  CLEAR     72  64  78 S3        30.10S
FRANKLIN*      CLEAR     63 N/A N/A CALM      30.10S
WAKEFIELD      CLEAR     64  61  90 CALM      30.09S
$$

VAZ020-022-025-037-045-310800-
WESTERN AND SOUTHWEST VIRGINIA

CITY           SKY/WX    TMP DP  RH WIND       PRES   REMARKS
STAUNTON*      CLEAR     57  54  89 CALM      30.12S
HOT SPRINGS VA CLEAR     55  49  81 W9        30.21S
LYNCHBURG      CLEAR     59  58  96 CALM      30.12F
DANVILLE       PTCLDY    63  60  90 CALM      30.10S
MARTINSVILLE   PTCLDY    57  57  97 CALM      30.14R
ROANOKE        PTCLDY    59  55  87 CALM      30.14S
BLACKSBURG     CLEAR     55  55 100 CALM        N/A
DUBLIN*        CLEAR     57  54  90 SW3       30.18R
MARION*        PTCLDY    54  52  94 CALM      30.21R
HILLSVILLE*    MOCLDY    58  53  83 SW3       30.18S
RICHLANDS*     PTSUNNY   60  56  87 NE3       30.18S
WISE*          PTCLDY    59  55  88 CALM      30.18S
ABINGDON*      PTCLDY    60  56  88 CALM      30.16S
$$

MDZ021>025-VAZ099-100-310800-
SOUTHERN MARYLAND AND THE DELMARVA PENINSULA

CITY           SKY/WX    TMP DP  RH WIND       PRES   REMARKS
PATUXENT RIVER CLEAR     66  61  84 S5        30.08S
BAY BRIDGE APT   N/A     70  61  73 S5        30.07S
LEONARDTOWN    CLEAR     64  59  82 CALM      30.09S
DOVER          CLEAR     62  58  88 S3        30.06S
GEORGETOWN     CLEAR     61  56  83 S7        30.10R
EASTON         CLEAR     65  60  82 CALM      30.11S
CAMBRIDGE      CLEAR     61  57  88 CALM      30.08S
SALISBURY      CLEAR     60  53  77 CALM      30.09S
OCEAN CITY     CLEAR     54  52  93 CALM      30.09S
WALLOPS ISLAND CLEAR     65  61  87 CALM      30.10S
ACCOMACK*        N/A     61  59  94 CALM      30.09S FOG
$$

NCZ012>017-030>032-310800-
EASTERN NORTH CAROLINA

CITY           SKY/WX    TMP DP  RH WIND       PRES   REMARKS
ELIZABETH CITY PTCLDY    69  62  78 CALM      30.09S
AHOSKIE*       PTCLDY    63  61  93 CALM      30.09S
EDENTON*       PTCLDY    72  64  76 SE6       30.09R
CURRITUCK*     PTCLDY    65  58  79 CALM      30.10R
KILL DEVIL HLS PTCLDY    72  62  71 SE3       30.08R
MANTEO         NOT AVBL
CAPE HATTERAS  CLOUDY    73  64  73 E6        30.07F
GOLDSBORO      CLOUDY    69  68  98 CALM      30.07S
WASHINGTON     CLOUDY    67  63  88 CALM      30.08F
GREENVILLE     CLOUDY    68  64  88 CALM      30.09F
NEW BERN       MOCLDY    71  67  87 CALM      30.08S
WILMINGTON     PTCLDY    70  68  93 CALM      30.06R
$$

VAZ048-310800-
ELSEWHERE

CITY           SKY/WX    TMP DP  RH WIND       PRES   REMARKS
HARRISBURG PA  CLOUDY    65  62  90 N3        30.05F
BALTIMORE      PTCLDY    62  56  80 CALM      30.07S
ANNAPOLIS      CLEAR     67  58  72 CALM      30.07R
ANDREWS AFB    PTCLDY    63  58  84 S6        30.07S
WILMINGTON DE  CLEAR     65  57  75 CALM      30.08R
PHILADELPHIA   PTCLDY    66  57  72 S7        30.07S
WILDWOOD NJ*   CLEAR     61  55  82 CALM      30.10S
ATLANTIC CITY  CLEAR     63  57  81 SW3       30.08S
HENDERSON NC   MOCLDY    64  62  94 CALM      30.09S FOG
GREENSBORO     MOCLDY    67  61  81 CALM      30.10R
ROCKY MOUNT    CLOUDY    66  64  93 CALM      30.09R
FAYETTEVILLE   CLOUDY    72  66  81 NE3       30.08S
CHARLOTTE      MOCLDY    68  63  84 CALM      30.08F
$$

VAZ100-310800-
MARINE

STATION/POSITION TIME  TEMP    WIND        PRES    WAVE   SWELL
                       AIR SEA DIR/SP/G            HT/PER HT/PER
                 (UTC) (F)     (DEG/KT/KT) (MB)    (FT/S) (FT/S)
44066 TX TWR #4  0700   72 74  240/  6/  8 1018.5S   3/ 8   3/ 8
CAPE MAY NJ      0700   69 76  210/  5/  7 1018.3R
LEWES DE         0700   65 71  220/  4/  6 1018.5S
15NM E FENWICK I 0700   73 73              1019.0R   2/ 8
OCEAN-CITY-INLET 0700   66 71  270/  4/  4 1018.5S
WACHAPREAGUE VA  0700   68 79  280/  2/  4 1018.9R
THOMAS POINT MD  0700   73 77  200/ 14/ 15 1018.7R
GOOSES REEF MD   0700   74     210/ 12/ 14 1018.8R
COVE POINT MD    0700   71     210/ 10/ 12 1018.4S
SOLOMONS ISLAND  0700      79                N/A
BISHOPS HEAD MD  0700   74 76  170/  6/  7 1018.1F
PINEY POINT MD   0700          230/ 12/ 13   N/A
POTOMAC MD       0700   72     230/ 12/ 14 1018.0S
CAMBRIDGE MD     0700   67 78  200/  1/  4 1018.2S
LEWISETTA VA     0700   68 77  240/  6/  7 1018.4S
RAPPAHANNOCK LGT 0700          190/ 12/ 14 1019.3R
STINGRAY PT      0700   74     210/ 10/ 12 1019.4R
YORK RVR RNG VA  0700   74     210/ 10/ 13 1018.3S
YORKTOWN VA      0700   70 79  210/  5/  7 1018.6R
JAMESTOWN VA     0700   69     210/  8/ 10   N/A
DOMINION TERM VA 0700   73     190/  9/ 10 1018.8S
KIPTOPEKE VA     0700      80  210/  8/ 10   N/A
CHES BAY BRIDGE  0700   72 74  170/  5/  6 1018.4R
CAPE HENRY VA    0700   71     190/  7/  7 1017.7S
WILLOUBY STN VA  0700          180/  4/  6 1018.2S
S CRANEY ISL VA  0700          160/  7/  8 1018.9S
CAPE HENRY BUOY  0700      75                N/A     2/ 8
1ST LANDING BUOY 0700   73     200/  6/  6 1018.5S
CAPE CHARLES BUO 0700      76                N/A     2/ 8
OFFSHORE WE BUOY 0700      78                N/A     2/ 7
64NM E OF VA BCH 0700   75 78  130/  8/ 10 1018.5F   2/ 8   2/ 8
DUCK PIER NC     0700   74 76  140/ 11/ 12 1018.0S
44056 DUCK FRF   0700                        N/A     2/ 8
OREGON INLET NC  0700   74 79  100/  4/  6 1018.6R
HATTERAS NC      0700   75 80   80/  4/  6 1018.6F
DIAMOND SHLS NC  0700          VRB 10/ 12  1018.1F   4/ 7   3/ 7
CAPE LOOKOUT NC  0600   79      90/ 11/ 12 1017.9F
$$



USA.gov is the U.S. government's official web portal to all federal, state and local government web resources and services.